User: anonymous   Login
Location: Unspecified
(0.0000°N, 0.0000°E)
Time: 00:00:02
(UTC+00:00)
Language:

Tiros 1 - Orbit

View from above orbital plane
View from above orbital plane
View from above satellite
View from above satellite

Ground track
Ground track

The orbit data is extracted from the following two-line orbital elements,

1    29U 60002B   19257.88724192 -.00000149 +00000-0 +89200-5 0  9993
2    29 048.3792 173.7819 0023557 129.9119 230.3868 14.74317301177732
Epoch (UTC): 14 September 2019 21:17:37
Eccentricity: 0.0023557
inclination: 48.3792°
perigee height: 631 km
apogee height: 664 km
right ascension of ascending node: 173.7819°
argument of perigee: 129.9119°
revolutions per day: 14.74317301
mean anomaly at epoch: 230.3868°
orbit number at epoch: 17773

The dashed part of the orbit path shows where the satellite is in the earth's shadow,  

DLR